Anoka County, MN

8:18 AM CST on February 24, 2018 (GMT -0600)
Anoka County / Blaine Airport

Weather History for KANE - May, 2014

Change the Weather History Date:

Thursday, May 1, 2014

  Actual Average Record
Temperature  
Mean Temperature 44 °F -  
Max Temperature 50 °F 62 °F 78 °F (1998)
Min Temperature 39 °F 41 °F 28 °F (1997)
Degree Days  
Heating Degree Days 20    
Moisture  
Dew Point 39 °F    
Average Humidity 86    
Maximum Humidity 100    
Minimum Humidity 66    
Precipitation  
Precipitation 0.01 in - - ()
Sea Level Pressure  
Sea Level Pressure 29.76 in    
Wind  
Wind Speed 12 mph (NW)    
Max Wind Speed 16 mph    
Max Gust Speed 25 mph    
Visibility 9 miles    
Events Rain    
Averages and records for this station are not official NWS values.
T = Trace of Precipitation, MM = Missing Value Source: NWS Daily Summary

Daily Weather History Graph

Daily Weather History Graph

Search for Another Location

Airport or City:

Trip Planner

Search our weather history database for the weather conditions in past years. The results will help you decide how hot, cold, wet, or windy it might be!

Date:

Astronomy

May. 01, 2014 Rise Set
Actual Time 6:01 AM CDT 8:18 PM CDT
Civil Twilight 5:29 AM CDT 8:51 PM CDT
Nautical Twilight 4:49 AM CDT 9:31 PM CDT
Astronomical Twilight 4:04 AM CDT 10:17 PM CDT
Moon 7:47 AM CDT (5/1) 10:55 PM CDT (5/1)
Length of Visible Light 15h 22m
Length of Day
14h 17m
Waxing Crescent, 7% of the Moon is Illuminated
May 1
Waxing Crescent
May 6
First Quarter
May 14
Full
May 21
Last Quarter
May 28
New

Hourly Weather History & Observations

Time (CDT) Temp. Windchill Dew Point Humidity Pressure Visibility Wind Dir Wind Speed Gust Speed Precip Events Conditions
12:15 AM 42.8 °F 35.8 °F 39.2 °F 87% 29.74 in 10.0 mi NNW 13.8 mph - N/A   Overcast
12:36 AM 42.8 °F 35.4 °F 39.2 °F 87% 29.73 in 10.0 mi NNW 15.0 mph 19.6 mph N/A   Overcast
12:55 AM 42.8 °F 35.8 °F 39.2 °F 87% 29.73 in 10.0 mi NNW 13.8 mph - N/A   Overcast
1:15 AM 41.0 °F 33.5 °F 39.2 °F 93% 29.73 in 10.0 mi NNW 13.8 mph - N/A   Overcast
1:36 AM 41.0 °F 34.7 °F 39.2 °F 93% 29.72 in 7.0 mi NNW 10.4 mph - N/A   Overcast
1:55 AM 41.0 °F 34.3 °F 39.2 °F 93% 29.72 in 10.0 mi NNW 11.5 mph - N/A   Overcast
2:15 AM 41.0 °F 34.3 °F 39.2 °F 93% 29.71 in 3.0 mi NW 11.5 mph - N/A   Light Drizzle
2:35 AM 41.0 °F 33.9 °F 39.2 °F 93% 29.71 in 4.0 mi NW 12.7 mph - N/A   Light Drizzle
2:55 AM 41.0 °F 34.7 °F 39.2 °F 93% 29.70 in 5.0 mi NW 10.4 mph - N/A   Overcast
3:16 AM 39.2 °F 31.6 °F 39.2 °F 100% 29.70 in 7.0 mi NW 12.7 mph - N/A   Drizzle
3:35 AM 39.2 °F 31.2 °F 39.2 °F 100% 29.70 in 10.0 mi NW 13.8 mph - N/A   Drizzle
3:55 AM 39.2 °F 31.6 °F 39.2 °F 100% 29.70 in 10.0 mi NW 12.7 mph - N/A   Light Drizzle
4:16 AM 39.2 °F 30.5 °F 39.2 °F 100% 29.70 in 10.0 mi NW 16.1 mph - N/A   Light Drizzle
4:35 AM 39.2 °F 30.8 °F 39.2 °F 100% 29.70 in 10.0 mi NW 15.0 mph - N/A   Drizzle
4:55 AM 39.2 °F 31.6 °F 39.2 °F 100% 29.70 in 10.0 mi NW 12.7 mph - 0.01 in   Drizzle
5:15 AM 39.2 °F 31.6 °F 39.2 °F 100% 29.70 in 10.0 mi NW 12.7 mph - N/A   Drizzle
5:35 AM 39.2 °F 31.6 °F 39.2 °F 100% 29.70 in 10.0 mi NW 12.7 mph - N/A Rain Rain
6:15 AM 39.2 °F 31.6 °F 39.2 °F 100% 29.71 in 10.0 mi NW 12.7 mph - N/A   Light Drizzle
6:36 AM 39.2 °F 30.8 °F 39.2 °F 100% 29.71 in 10.0 mi NW 15.0 mph - N/A   Light Drizzle
7:45 AM 39.2 °F 32.0 °F 39.2 °F 100% 29.71 in 6.0 mi NW 11.5 mph - N/A   Light Drizzle
8:50 AM 39.2 °F 31.2 °F 39.2 °F 100% 29.73 in 6.0 mi NNW 13.8 mph - N/A   Overcast
9:45 AM 42.8 °F 35.8 °F 39.2 °F 87% 29.73 in 10.0 mi NNW 13.8 mph - N/A   Light Drizzle
10:45 AM 42.8 °F 35.8 °F 41.0 °F 93% 29.75 in 10.0 mi NW 13.8 mph - N/A Rain Light Rain
11:50 AM 44.6 °F 37.8 °F 41.0 °F 87% 29.76 in 10.0 mi WNW 15.0 mph 18.4 mph N/A   Overcast
12:45 PM 44.6 °F 37.4 °F 41.0 °F 87% 29.76 in 10.0 mi NW 16.1 mph 25.3 mph N/A   Overcast
1:45 PM 46.4 °F 41.1 °F 41.0 °F 81% 29.79 in 10.0 mi NW 11.5 mph 17.3 mph N/A   Overcast
2:55 PM 48.2 °F - 41.0 °F 76% 29.80 in 10.0 mi NW 12.7 mph - N/A   Overcast
3:50 PM 48.2 °F - 41.0 °F 76% 29.79 in 10.0 mi NW 8.1 mph - N/A   Unknown
4:45 PM 50.0 °F - 39.2 °F 66% 29.80 in 10.0 mi NW 10.4 mph - N/A   Overcast
5:45 PM 50.0 °F - 39.2 °F 66% 29.80 in 10.0 mi NNW 11.5 mph - N/A   Overcast
6:55 PM 50.0 °F - 39.2 °F 66% 29.81 in 10.0 mi NW 11.5 mph 17.3 mph N/A   Overcast
7:45 PM 48.2 °F - 39.2 °F 71% 29.82 in 10.0 mi NW 11.5 mph 17.3 mph N/A   Overcast
8:45 PM 48.2 °F - 39.2 °F 71% 29.82 in 10.0 mi NNW 11.5 mph - N/A   Mostly Cloudy
9:15 PM 46.4 °F 43.5 °F 39.2 °F 76% 29.83 in 10.0 mi NW 5.8 mph - N/A   Mostly Cloudy
9:35 PM 46.4 °F 43.5 °F 39.2 °F 76% 29.83 in 10.0 mi NW 5.8 mph - N/A   Overcast
9:45 PM 46.4 °F 43.5 °F 39.2 °F 76% 29.83 in 10.0 mi NW 5.8 mph - N/A   Overcast
9:55 PM 46.4 °F 44.3 °F 39.2 °F 76% 29.83 in 10.0 mi NW 4.6 mph - N/A   Overcast
10:15 PM 46.4 °F 44.3 °F 39.2 °F 76% 29.83 in 10.0 mi NW 4.6 mph - N/A   Overcast
10:35 PM 46.4 °F 44.3 °F 39.2 °F 76% 29.84 in 10.0 mi NW 4.6 mph - N/A   Overcast
10:55 PM 46.4 °F 45.2 °F 39.2 °F 76% 29.83 in 10.0 mi NW 3.5 mph - N/A   Overcast
11:16 PM 46.4 °F 45.2 °F 39.2 °F 76% 29.83 in 10.0 mi WNW 3.5 mph - N/A   Overcast
11:35 PM 46.4 °F - 39.2 °F 76% 29.82 in 10.0 mi Calm Calm - N/A   Overcast
11:55 PM 46.4 °F - 39.2 °F 76% 29.82 in 10.0 mi Calm Calm - N/A   Overcast